星链-5352 (STARLINK-5352 )

导读

STARLINK-5352是美国SpaceX公司星链(Starlink)星座中的一颗互联网通信卫星,于2023年5月4日发射。星链项目旨在通过低地球轨道部署大量卫星,为全球尤其是偏远欠发达地区提供高速、低延迟的宽带互联网服务。该卫星重约297公斤,运行在约550公里高度的近地轨道,属于星链网络规模扩张的一部分,助力实现全球卫星互联网覆盖目标。

基本信息
目录编号:
56426
目录名称:
STARLINK-5352
国际标识:
2023-061BE
轨道中心:
EARTH
卫星名称:
星链-5352
卫星全名:
星链-5352 (STARLINK-5352 )
卫星状态:
在轨 (已飞行1140 天)
发射日期:
2023-05-04 UTC
国别 :
美国 (US)
星等 :
--
轨道信息
数据来源 国际轨道数据
星历时间: 2026-06-17T12:39:06+0800
4小时前
查看轨道信息
半长轴: 6861.194km
偏心率: 0.0001593
轨道倾角: 43.003°
近地点辐角 268.372°
升交点赤经 337.931°
平近点角 91.695°
近地点: 481.964km
远地点: 484.15km
周期: 94.267分钟
每日圈数: 15.275774
详细信息
固有亮度:
5
最大亮度:
2.5
卫星平台:
Starlink v1.5
覆盖范围:
全球
运营商:
太空探索技术公司
运营商所在国:
美国
制造商(研发单位):
太空探索技术公司
制造商所在国:
美国
使用方式:
暂无
卫星简介
星链(Starlink)计划是由太空探索技术公司(SpaceX)提出的一个巨型低轨卫星互联网星座项目,计划在2019年至2024年间在太空搭建由约1.2万颗卫星组成的“星链”网络,其中1584颗将部署在地球上空550千米处的近地轨道,并从2020年开始工作。该卫星仍在工作。
2D轨道图
3D轨道图
轨道高度分析图
轨道倾角分析图
轨道综合分析图
查看轨道综合分析图